Regional Weather Roundup
Issued by NWS Glasgow, MT

Home | Current Version | Previous Version | Text Only | Print | Product List | Glossary On
Versions: 1 2 3 4 5 6 7 8 9 10 11 12 13 14 15 16 17 18 19 20 21 22 23 24 25 26 27 28 29 30 31 32 33 34 35 36 37 38 39 40 41 42 43 44 45 46 47 48 49 50
000
ASUS45 KGGW 272215
RWRGGW
HOURLY REGIONAL WEATHER ROUNDUP FOR NORTHEAST MONTANA
NATIONAL WEATHER SERVICE GLASGOW MONTANA
400 PM MDT THU JUL 27 2017

NOTE: "FAIR" INDICATES FEW OR NO CLOUDS BELOW 12,000 FEET WITH NO
SIGNIFICANT WEATHER AND/OR OBSTRUCTIONS TO VISISBILITY.

NORTHEAST MONTANA


CITY           SKY/WX    TMP DP  RH WIND       PRES   REMARKS
GLASGOW        FAIR      92  52  25 MISG      29.93S
PLENTYWOOD       N/A     77  55  46 SE6G14      N/A
WOLF POINT     FAIR      89  55  31 SE14G26   29.97R
JORDAN           N/A     92  53  26 E9        29.93F
WINNETT          N/A     89  44  20 S6          N/A
SIDNEY         HVY RAIN  72  63  73 S33G46    30.05R SQUALL
GLENDIVE       LGT RAIN  67  63  87 SE13G22   30.06F
MALTA            N/A     97  46  17 SE6G16      N/A

FORT PECK REPORTS


CITY           SKY/WX    TMP DP  RH WIND       PRES   REMARKS
FORT PECK        N/A     87  56  34 E13G23      N/A
THE PINES        N/A     94  51  23 SE7G15      N/A

SOUTHEAST MONTANA


CITY           SKY/WX    TMP DP  RH WIND       PRES   REMARKS
BILLINGS       FAIR      91  46  21 W9        29.97F
MILES CITY     CLOUDY    90  55  30 SE10      29.94S
BAKER          CLOUDY    74  53  48 SE29G38   30.06F
LIVINGSTON     FAIR      88  43  20 W8        30.04F

CENTRAL MONTANA


CITY           SKY/WX    TMP DP  RH WIND       PRES   REMARKS
HAVRE          FAIR      95  40  14 W15       29.90F
LEWISTOWN      PTSUNNY   83  48  29 E13       30.05R
GREAT FALLS    FAIR      91  36  14 VRB6      29.98F
CUT BANK       FAIR      90  35  14 SW13G23   29.98F
HELENA         FAIR      91  41  17 E8        29.99F
BUTTE          FAIR      81  38  21 CALM      30.15F
BOZEMAN        FAIR      87  50  27 N6        30.06F

WESTERN MONTANA


CITY           SKY/WX    TMP DP  RH WIND       PRES   REMARKS
MISSOULA       FAIR      89  45  21 CALM      30.00F
KALISPELL      NOT AVBL

NORTH DAKOTA


CITY           SKY/WX    TMP DP  RH WIND       PRES   REMARKS
WILLISTON      FAIR      73  64  73 E8        30.02F
DICKINSON      PTSUNNY   79  57  46 CALM      30.04F
MINOT          FAIR      85  56  37 SE13      30.06S
BISMARCK       FAIR      82  58  43 E12       30.07S

SOUTHERN SASKATCHEWAN


CITY           SKY/WX    TMP DP  RH WIND       PRES   REMARKS
REGINA         MOSUNNY   90  54  29 SE15      29.98F
MOOSE JAW      PTSUNNY   91  48  22 SE8       29.96F
ESTEVAN        PTSUNNY   79  59  50 S2        30.04S
SWIFT CURRENT  MOSUNNY   90  52  27 S12G18    29.95F




USA.gov is the U.S. government's official web portal to all federal, state and local government web resources and services.